Preview of NWS' New Version of Forecast
This preview is not operational and should not be used for support decisions.

Regional Weather Roundup (RWR)

Issued by National Weather Service (NWS)

                            
000
ASUS45 KCYS 250010
RWRWY 

WYOMING REGIONAL WEATHER ROUNDUP
NATIONAL WEATHER SERVICE CHEYENNE WY
600 PM MDT SAT AUG 24 2019

NOTE:  "FAIR" INDICATES FEW OR NO CLOUDS BELOW 12,000 FEET
WITH NO SIGNIFICANT WEATHER AND/OR OBSTRUCTIONS TO VISIBILITY.

WYZ001-250100-
...YELLOWSTONE NATIONAL PARK...
  
CITY           SKY/WX    TMP DP  RH WIND       PRES   REMARKS
LK YELLOWSTONE   N/A     69  30  23 VRB5      30.18S                  
6HR MIN TEMP:  63; 6HR MAX TEMP:  72;                                

W YELLOWSTONE  NOT AVBL                                               

$$
WYZ002>013-054>058-071-098>099-250100-
...NORTHERN WYOMING...
  
CITY           SKY/WX    TMP DP  RH WIND       PRES   REMARKS
JACKSON        SUNNY     79  34  19 W18G25    30.07F                  
CODY           MOSUNNY   83  43  24 SE10      29.91F                  
GREYBULL       MOSUNNY   87  42  20 E6        29.83F                  
6HR MIN TEMP:  79; 6HR MAX TEMP:  88;                                

WORLAND        MOSUNNY   86  43  22 E12       29.86S                  
6HR MIN TEMP:  78; 6HR MAX TEMP:  86;                                

SHERIDAN       PTSUNNY   83  49  30 S6        29.88S                  
6HR MIN TEMP:  80; 6HR MAX TEMP:  87;                                

BUFFALO        CLOUDY    80  47  31 CALM        N/A                   
6HR MIN TEMP:  77; 6HR MAX TEMP:  81;                                

GILLETTE       CLOUDY    76  56  49 N3        29.92S                  
6HR MIN TEMP:  75; 6HR MAX TEMP:  82;                                

HULETT         FAIR      77  55  47 E3        29.92F                  
NEWCASTLE      FAIR      79  46  31 NW6       29.93S                  

$$
WYZ014>020-022>026-101>103-250100-
...CENTRAL WYOMING...
  
CITY           SKY/WX    TMP DP  RH WIND       PRES   REMARKS
BIG PINEY      SUNNY     81  34  18 NW17G23   30.13S                  
6HR MIN TEMP:  71; 6HR MAX TEMP:  83;                                

PINEDALE       SUNNY     79  30  17 W16       30.14S                  
DUBOIS         FAIR      75  30  19 NW17G24   30.09F                  
LANDER         SUNNY     87  36  16 CALM      29.95F                  
6HR MIN TEMP:  77; 6HR MAX TEMP:  87;                                

RIVERTON       SUNNY     85  39  19 S7        29.95F                  
6HR MIN TEMP:  75; 6HR MAX TEMP:  87;                                

CASPER         MOSUNNY   84  35  17 NW12      29.97S                  
6HR MIN TEMP:  79; 6HR MAX TEMP:  86;                                

DOUGLAS        CLOUDY    81  44  27 NW3       29.96S                  
6HR MIN TEMP:  79; 6HR MAX TEMP:  86;                                


$$
WYZ021-027>030-104>119-250100-
...SOUTHERN WYOMING...
  
CITY           SKY/WX    TMP DP  RH WIND       PRES   REMARKS
EVANSTON       SUNNY     79  30  16 SW28G36   30.18F                  
6HR MIN TEMP:  76; 6HR MAX TEMP:  81;                                

KEMMERER       SUNNY     77  23  13 W20G29    30.18S                  
FORT BRIDGER   NOT AVBL                                               
ROCK SPRINGS   SUNNY     82  28  14 W23G37    30.11S                  
6HR MIN TEMP:  74; 6HR MAX TEMP:  84;                                

DIXON          FAIR      83  24  11 SW7       30.12F                  
RAWLINS        MOSUNNY   81  27  14 W14       30.09F                  
6HR MIN TEMP:  72; 6HR MAX TEMP:  84;                                

SARATOGA       FAIR      81  27  13 W16G22    30.14S                  
LARAMIE        PTSUNNY   79  26  14 NW17G26   30.13R                  
6HR MIN TEMP:  71; 6HR MAX TEMP:  81;                                

CHEYENNE       SUNNY     83  32  16 NW12G23   30.05S                  
6HR MIN TEMP:  76; 6HR MAX TEMP:  84;                                

TORRINGTON     SUNNY     81  57  43 SE9       29.91S                  
6HR MIN TEMP:  73; 6HR MAX TEMP:  84;                                

PINE BLUFFS    FAIR      79  48  34 NE6       30.01S                  

$$